Regional Weather Roundup
Issued by NWS

Home | Current Version | Previous Version | Graphics & Text | Print | Product List | Glossary On
Versions: 1 2 3 4 5 6 7 8 9 10 11 12 13 14 15 16 17 18 19 20 21 22 23 24 25 26 27 28 29 30 31 32 33 34 35 36 37 38 39 40 41 42 43 44 45 46 47 48 49 50
000
ASUS43 KFSD 291902
RWRSD

WEATHER ROUNDUP FOR SOUTH DAKOTA
NATIONAL WEATHER SERVICE SIOUX FALLS SD
200 PM CDT WED MAR 29 2017

NOTE: "FAIR" INDICATES FEW OR NO CLOUDS BELOW 12,000 FEET WITH NO
SIGNIFICANT WEATHER AND/OR OBSTRUCTIONS TO VISIBILITY.


SDZ001>005-009-010-012>017-292000-
NORTHWEST AND NORTH CENTRAL SOUTH DAKOTA

CITY           SKY/WX    TMP DP  RH WIND       PRES   REMARKS
BUFFALO          N/A     58  35  42 VRB7      29.95F
FAITH            N/A     52  43  71 MISG      30.05F
MOBRIDGE       SUNNY     62  31  31 S9        30.04F
$$

SDZ012>016-024>037-041>051-057-063-072>074-292000-
SOUTHWEST AND SOUTH CENTRAL SOUTH DAKOTA

CITY           SKY/WX    TMP DP  RH WIND       PRES   REMARKS
RAPID CTY ARPT MOSUNNY   52  42  69 N5        30.05F
PIERRE         CLOUDY    59  34  39 VRB7      30.05F
CUSTER         CLOUDY    44  36  73 SE6       30.04F
ELLSWORTH AFB  MOSUNNY   52  43  73 VRB6      30.04
PHILIP         CLOUDY    56  42  59 VRB3      30.06F
PINE RIDGE     CLOUDY    53  42  66 E6        30.05F
SPEARFISH      FAIR      55  36  47 NE9       30.04F
WINNER         MOCLDY    56  42  59 E8        30.05F
$$

SDZ004>011-016>023-039-040-292000-
NORTHEAST SOUTH DAKOTA

CITY           SKY/WX    TMP DP  RH WIND       PRES   REMARKS
ABERDEEN       MOSUNNY   61  32  33 S14       30.09F
WATERTOWN      CLOUDY    54  36  50 SE12      30.10F
BROOKINGS      CLOUDY    53  33  46 SE22      30.09F
SISSETON         N/A     57  40  52 S13       30.12F
$$

SDZ017-020-022-023-036>040-048>070-292000-
SOUTHEAST SOUTH DAKOTA

CITY           SKY/WX    TMP DP  RH WIND       PRES   REMARKS
SIOUX FALLS    CLOUDY    49  41  74 E18       30.09F
HURON          PTSUNNY   56  38  50 S8        30.09F
CHAMBERLAIN    CLOUDY    56  42  58 E13       30.08S
MITCHELL       CLOUDY    52  38  58 SE20      30.10F
YANKTON        CLOUDY    46  39  76 NE20G26   30.05F
$$

ABBREVIATIONS USED IN REMARKS
   TC - TEMPERATURE IN CELSIUS
  WCI - WIND CHILL INDEX
   HX - HEAT INDEX
  VSB - VISIBILITY





USA.gov is the U.S. government's official web portal to all federal, state and local government web resources and services.